Flag for Switzerland Weather past 2 weeks in Winterthur, Switzerland

Now
63 °F

Partly sunny.


Feels Like: 63 °F
Forecast: 43 / 70 °F
Wind: 2 mph from North

Location: Zurich-Kloten

Current Time: Aug 20, 2014 at 12:50:01 PM

Latest Report: Aug 20, 2014 at 11:50 AM


Visibility: N/A

Pressure: 30.04 "Hg

Humidity: 64%

Dew point: 50 °F

Location of WinterthurLocation

Historic Weather in Winterthur — Graph

°F

Winterthur temperature yesterday

Maximum temperature yesterday: 68 °F (at 3:50 PM)
Minimum temperature yesterday: 55 °F (at 2:50 AM)
Average temperature yesterday: 61 °F

Past Weeks' High & Low Weather Summary

 TemperatureHumidityPressure
High81 °F (Aug 8, 3:20 PM)100% (Aug 6, 2:50 AM)30.21 "Hg (Aug 6, 2:50 AM)
Low45 °F (Aug 17, 6:50 AM)43% (Aug 17, 3:20 PM)29.68 "Hg (Aug 13, 9:50 AM)
Average63 °F78%30.00 "Hg
* Reported Aug 5 11:20 AM — Aug 20 11:20 AM, Winterthur, Weather by CustomWeather, © 2014

Note: Actual official high and low records may vary slightly from our data, if they occured in-between our weather recording intervals... More about our weather records

Advertising

Winterthur weather history for previous 24 hours

 ConditionsComfort  
Time TempWeatherWind HumidityBarometerVisibility
11:20 AM
Aug 20
64 °FPartly sunny.3 mph64%30.04 "HgN/A
10:50 AM61 °FBroken clouds.5 mph68%30.04 "HgN/A
10:20 AM61 °FPartly sunny.3 mph68%30.04 "HgN/A
9:50 AM59 °FPartly sunny.3 mph77%30.04 "HgN/A
9:20 AM57 °FBroken clouds.5 mph77%30.04 "HgN/A
8:50 AM57 °FPartly sunny.3 mph77%30.04 "HgN/A
8:20 AM55 °FScattered clouds.2 mph88%30.04 "HgN/A
7:50 AM54 °FScattered clouds.2 mph88%30.04 "HgN/A
7:20 AM52 °FPassing clouds.1 mph94%30.04 "HgN/A
6:50 AM50 °FPassing clouds.2 mph94%30.04 "HgN/A
6:20 AM52 °FPassing clouds.2 mph88%30.04 "HgN/A
5:50 AM55 °FPassing clouds.2 mph82%30.04 "HgN/A
5:20 AM55 °FPassing clouds.1 mph88%30.04 "HgN/A
4:50 AM55 °FPassing clouds.3 mph88%30.04 "HgN/A
4:20 AM57 °FPassing clouds.2 mph82%30.04 "HgN/A
3:50 AM55 °FPassing clouds.2 mph88%30.04 "HgN/A
3:20 AM57 °FPassing clouds.2 mph82%30.04 "HgN/A
2:50 AM57 °FPassing clouds.2 mph82%30.01 "HgN/A
1:50 AM57 °FPassing clouds.2 mph82%30.04 "HgN/A
1:20 AM57 °FPassing clouds.2 mph82%30.04 "HgN/A
12:50 AM59 °FPassing clouds.1 mph77%30.04 "HgN/A
12:20 AM59 °FPassing clouds.1 mph77%30.04 "HgN/A
11:50 PM
Aug 19
59 °FPassing clouds.No wind77%30.04 "HgN/A
11:20 PM61 °FPassing clouds.2 mph72%30.04 "HgN/A
10:50 PM59 °FPassing clouds.1 mph77%30.01 "HgN/A
10:20 PM59 °FPassing clouds.1 mph72%30.01 "HgN/A
9:50 PM61 °FPassing clouds.1 mph68%30.01 "HgN/A
9:20 PM61 °FPartly sunny.1 mph63%30.01 "HgN/A
8:50 PM61 °FPartly sunny.5 mph63%29.98 "HgN/A
8:20 PM63 °FPartly sunny.3 mph59%29.98 "HgN/A
7:50 PM64 °FPartly sunny.5 mph56%29.98 "HgN/A
7:20 PM64 °FPartly sunny.7 mph56%29.98 "HgN/A
6:50 PM66 °FPartly sunny.9 mph52%29.95 "HgN/A
6:20 PM66 °FPartly sunny.7 mph56%29.95 "HgN/A
5:50 PM66 °FPassing clouds.12 mph52%29.95 "HgN/A
5:20 PM68 °FPassing clouds.12 mph53%29.95 "HgN/A
4:50 PM68 °FPassing clouds.13 mph53%29.95 "HgN/A
4:20 PM68 °FPassing clouds.12 mph53%29.95 "HgN/A
3:50 PM68 °FPassing clouds.10 mph56%29.95 "HgN/A
3:20 PM66 °FScattered clouds.10 mph56%29.95 "HgN/A
2:50 PM66 °FScattered clouds.7 mph60%29.95 "HgN/A
2:20 PM64 °FScattered clouds.8 mph64%29.95 "HgN/A
1:50 PM64 °FScattered clouds.7 mph64%29.95 "HgN/A
1:20 PM66 °FScattered clouds.8 mph64%29.95 "HgN/A
12:50 PM64 °FPartly sunny.8 mph68%29.95 "HgN/A
12:20 PM64 °FPartly sunny.6 mph73%29.95 "HgN/A
Weather by CustomWeather, © 2014

See weather overviewHow to use our weather pages